Location: *
(37.4917°N, 71.5558°E)
Time: 21:15:55
(UTC+00:00)

CZ-4B R/B - Pass Details

Date: 09 April 2020
Orbit: 391 x 465 km, 97.6° (Epoch: 31 May)

Event Time Altitude Azimuth Distance (km) Brightness Sun altitude
Exits shadow 22:35:34 - 135° (SE) 1,689 4.4 -24.8°
Reaches altitude 10° 22:35:46 10° 134° (SE) 1,618 4.3 -24.7°
Maximum altitude 22:38:49 29° 72° (ENE) 883 3.5 -24.2°
Drops below altitude 10° 22:41:52 10° 11° (N) 1,623 4.7 -23.7°
Sets 22:44:04 0° 0° (N) 2,497 5.6 -23.3°
